| time (UTC) | temp F | wind direction | speed MPH | gust MPH | rain 1hr in | rain 24hr in | rain mn in | humidity % | barometer mb |
| 20260508151431 | 56 | 236 | 3.0 | 6.0 | 0.00 | 0.01 | 0.01 | 57 | 1018.2 |
| 20260508150417 | 55 | 177 | 3.0 | 7.0 | 0.00 | 0.01 | 0.01 | 60 | 1018.3 |
| 20260508145420 | 54 | 171 | 1.0 | 4.0 | 0.00 | 0.03 | 0.01 | 63 | 1018.3 |
| 20260508144424 | 53 | 196 | 2.0 | 5.0 | 0.00 | 0.03 | 0.01 | 62 | 1018.3 |
| 20260508143445 | 51 | 179 | 2.0 | 6.0 | 0.00 | 0.03 | 0.01 | 64 | 1018.2 |
| 20260508142427 | 50 | 195 | 1.0 | 5.0 | 0.00 | 0.03 | 0.01 | 75 | 1018.1 |
| 20260508141446 | 49 | 182 | 0.0 | 3.0 | 0.00 | 0.03 | 0.01 | 83 | 1018.1 |
| 20260508140430 | 47 | 175 | 1.0 | 4.0 | 0.00 | 0.03 | 0.01 | 88 | 1018.1 |
| 20260508135416 | 47 | 188 | 1.0 | 3.0 | 0.00 | 0.03 | 0.01 | 93 | 1018.3 |
| 20260508134419 | 46 | 172 | 0.0 | 0.0 | 0.00 | 0.03 | 0.01 | 93 | 1018.1 |
| 20260508133421 | 45 | 360 | 0.0 | 0.0 | 0.00 | 0.03 | 0.01 | 94 | 1018.1 |
| 20260508132420 | 45 | 355 | 0.0 | 0.0 | 0.00 | 0.03 | 0.01 | 94 | 1018.1 |
| 20260508131425 | 44 | 355 | 0.0 | 0.0 | 0.00 | 0.03 | 0.01 | 94 | 1017.8 |
| 20260508130428 | 43 | 355 | 0.0 | 0.0 | 0.00 | 0.03 | 0.01 | 94 | 1017.7 |
| 20260508125429 | 42 | 355 | 1.0 | 3.0 | 0.00 | 0.03 | 0.01 | 94 | 1017.8 |
| 20260508124430 | 41 | 350 | 2.0 | 3.0 | 0.00 | 0.03 | 0.01 | 94 | 1017.7 |
| 20260508123436 | 40 | 296 | 0.0 | 3.0 | 0.00 | 0.03 | 0.01 | 94 | 1017.7 |
| 20260508122418 | 40 | 292 | 1.0 | 2.0 | 0.00 | 0.03 | 0.01 | 94 | 1017.8 |
| 20260508121430 | 39 | 286 | 1.0 | 2.0 | 0.00 | 0.03 | 0.01 | 94 | 1017.9 |
| 20260508120433 | 38 | 282 | 1.0 | 3.0 | 0.00 | 0.03 | 0.01 | 93 | 1017.8 |
| 20260508115421 | 37 | 281 | 1.0 | 2.0 | 0.00 | 0.03 | 0.01 | 93 | 1017.7 |
| 20260508114425 | 36 | 277 | 0.0 | 0.0 | 0.00 | 0.03 | 0.01 | 93 | 1017.5 |
| 20260508113428 | 35 | 277 | 0.0 | 0.0 | 0.00 | 0.03 | 0.01 | 93 | 1017.5 |
| 20260508112429 | 34 | 277 | 0.0 | 0.0 | 0.00 | 0.03 | 0.01 | 92 | 1017.4 |
| 20260508111433 | 34 | 277 | 0.0 | 0.0 | 0.00 | 0.03 | 0.01 | 92 | 1017.3 |
| 20260508110434 | 34 | 277 | 0.0 | 0.0 | 0.00 | 0.03 | 0.01 | 92 | 1017.2 |
| 20260508105415 | 34 | 277 | 0.0 | 0.0 | 0.00 | 0.04 | 0.01 | 92 | 1017.2 |
| 20260508104432 | 34 | 277 | 0.0 | 0.0 | 0.00 | 0.04 | 0.01 | 92 | 1017.0 |
| 20260508103415 | 34 | 203 | 0.0 | 0.0 | 0.00 | 0.04 | 0.01 | 92 | 1016.9 |
| 20260508102419 | 34 | 203 | 0.0 | 0.0 | 0.00 | 0.04 | 0.01 | 92 | 1016.9 |
| 20260508101424 | 34 | 203 | 0.0 | 0.0 | 0.00 | 0.04 | 0.01 | 92 | 1016.9 |
| 20260508100426 | 34 | 203 | 0.0 | 0.0 | 0.00 | 0.04 | 0.01 | 92 | 1017.0 |
| 20260508095425 | 34 | 203 | 0.0 | 0.0 | 0.00 | 0.06 | 0.01 | 91 | 1016.9 |
| 20260508094430 | 34 | 203 | 0.0 | 1.0 | 0.00 | 0.06 | 0.01 | 91 | 1016.8 |
| 20260508093432 | 34 | 203 | 1.0 | 2.0 | 0.00 | 0.06 | 0.01 | 91 | 1016.8 |
| 20260508092432 | 34 | 203 | 0.0 | 0.0 | 0.00 | 0.06 | 0.01 | 91 | 1016.7 |
| 20260508091431 | 35 | 203 | 0.0 | 0.0 | 0.00 | 0.06 | 0.01 | 91 | 1016.7 |
| 20260508090450 | 35 | 203 | 0.0 | 0.0 | 0.00 | 0.06 | 0.01 | 91 | 1016.6 |
| 20260508085432 | 35 | 203 | 0.0 | 0.0 | 0.00 | 0.06 | 0.01 | 91 | 1016.6 |
| 20260508084434 | 35 | 203 | 0.0 | 0.0 | 0.00 | 0.06 | 0.01 | 91 | 1016.7 |
| 20260508083417 | 35 | 203 | 0.0 | 0.0 | 0.00 | 0.06 | 0.01 | 91 | 1016.7 |
| 20260508082418 | 35 | 203 | 0.0 | 0.0 | 0.00 | 0.06 | 0.01 | 91 | 1016.6 |
| 20260508081420 | 36 | 203 | 0.0 | 0.0 | 0.00 | 0.06 | 0.01 | 91 | 1016.6 |
| 20260508080423 | 35 | 203 | 0.0 | 0.0 | 0.00 | 0.06 | 0.01 | 91 | 1016.5 |
| 20260508075448 | 36 | 203 | 0.0 | 0.0 | 0.00 | 0.06 | 0.01 | 91 | 1016.6 |
| 20260508074429 | 36 | 203 | 0.0 | 0.0 | 0.00 | 0.06 | 0.01 | 91 | 1016.4 |
| 20260508073433 | 36 | 203 | 0.0 | 0.0 | 0.00 | 0.06 | 0.01 | 91 | 1016.4 |
| 20260508072434 | 36 | 203 | 0.0 | 0.0 | 0.00 | 0.06 | 0.01 | 91 | 1016.3 |
| 20260508071417 | 36 | 203 | 0.0 | 0.0 | 0.00 | 0.06 | 0.01 | 90 | 1016.3 |
| 20260508070425 | 37 | 203 | 0.0 | 0.0 | 0.00 | 0.06 | 0.01 | 90 | 1016.2 |
| 20260508065430 | 37 | 203 | 0.0 | 0.0 | 0.01 | 0.20 | 0.01 | 91 | 1016.1 |
| 20260508064432 | 37 | 203 | 0.0 | 0.0 | 0.01 | 0.20 | 0.01 | 90 | 1016.1 |
| 20260508063435 | 38 | 203 | 0.0 | 0.0 | 0.01 | 0.20 | 0.01 | 90 | 1016.1 |
| 20260508062419 | 38 | 203 | 0.0 | 0.0 | 0.01 | 0.20 | 0.01 | 90 | 1016.3 |
| 20260508061419 | 39 | 203 | 0.0 | 0.0 | 0.01 | 0.20 | 0.01 | 91 | 1016.2 |
| 20260508060424 | 39 | 203 | 0.0 | 0.0 | 0.01 | 0.20 | 0.01 | 91 | 1016.2 |
| 20260508055431 | 39 | 203 | 0.0 | 0.0 | 0.00 | 0.20 | 0.00 | 91 | 1016.3 |
| 20260508054416 | 39 | 203 | 0.0 | 0.0 | 0.00 | 0.20 | 0.00 | 90 | 1016.4 |
| 20260508053435 | 40 | 203 | 0.0 | 0.0 | 0.00 | 0.20 | 0.00 | 90 | 1016.4 |
| 20260508052418 | 40 | 203 | 0.0 | 0.0 | 0.00 | 0.20 | 0.00 | 90 | 1016.3 |
| 20260508051440 | 40 | 203 | 0.0 | 0.0 | 0.00 | 0.20 | 0.00 | 91 | 1016.3 |
| 20260508050416 | 40 | 203 | 0.0 | 0.0 | 0.00 | 0.20 | 0.00 | 90 | 1016.2 |
| 20260508045419 | 40 | 203 | 0.0 | 0.0 | 0.00 | 0.20 | 0.00 | 90 | 1016.1 |
| 20260508044422 | 41 | 203 | 0.0 | 0.0 | 0.00 | 0.20 | 0.00 | 90 | 1015.9 |
| 20260508043423 | 41 | 203 | 0.0 | 0.0 | 0.00 | 0.20 | 0.00 | 90 | 1015.9 |
| 20260508042443 | 42 | 203 | 0.0 | 0.0 | 0.00 | 0.20 | 0.00 | 90 | 1015.8 |
| 20260508041422 | 42 | 203 | 0.0 | 0.0 | 0.00 | 0.20 | 0.00 | 90 | 1015.6 |
| 20260508040424 | 43 | 203 | 0.0 | 0.0 | 0.00 | 0.20 | 0.00 | 90 | 1015.5 |
| 20260508035444 | 43 | 203 | 0.0 | 0.0 | 0.00 | 0.20 | 0.20 | 90 | 1015.6 |
| 20260508034424 | 43 | 203 | 0.0 | 0.0 | 0.00 | 0.20 | 0.20 | 90 | 1015.7 |
| 20260508033427 | 43 | 203 | 0.0 | 2.0 | 0.00 | 0.20 | 0.20 | 90 | 1015.5 |
| 20260508032432 | 43 | 203 | 0.0 | 2.0 | 0.00 | 0.20 | 0.20 | 90 | 1015.6 |
| 20260508031434 | 43 | 203 | 0.0 | 1.0 | 0.00 | 0.20 | 0.20 | 89 | 1015.3 |
| 20260508030454 | 43 | 203 | 0.0 | 0.0 | 0.00 | 0.20 | 0.20 | 89 | 1015.2 |
| 20260508025455 | 43 | 203 | 0.0 | 0.0 | 0.00 | 0.27 | 0.20 | 89 | 1015.2 |
| 20260508024434 | 44 | 203 | 0.0 | 0.0 | 0.00 | 0.27 | 0.20 | 89 | 1015.1 |
| 20260508023419 | 45 | 203 | 0.0 | 0.0 | 0.00 | 0.27 | 0.20 | 89 | 1015.1 |
| 20260508022419 | 45 | 203 | 0.0 | 0.0 | 0.00 | 0.27 | 0.20 | 89 | 1014.9 |
| 20260508021420 | 44 | 203 | 0.0 | 0.0 | 0.00 | 0.27 | 0.20 | 88 | 1014.9 |
| 20260508020422 | 45 | 203 | 0.0 | 0.0 | 0.00 | 0.27 | 0.20 | 88 | 1014.7 |
| 20260508015423 | 45 | 203 | 0.0 | 0.0 | 0.00 | 0.31 | 0.20 | 87 | 1014.6 |
| 20260508014424 | 46 | 203 | 0.0 | 0.0 | 0.00 | 0.31 | 0.20 | 87 | 1014.5 |
| 20260508013424 | 46 | 203 | 0.0 | 0.0 | 0.00 | 0.31 | 0.20 | 87 | 1014.3 |
| 20260508012425 | 47 | 203 | 0.0 | 0.0 | 0.00 | 0.31 | 0.20 | 86 | 1014.1 |
| 20260508011427 | 47 | 203 | 0.0 | 0.0 | 0.00 | 0.31 | 0.20 | 85 | 1013.9 |
| 20260508010434 | 48 | 203 | 0.0 | 0.0 | 0.00 | 0.31 | 0.20 | 84 | 1013.8 |
| 20260508005420 | 48 | 203 | 0.0 | 0.0 | 0.00 | 0.33 | 0.20 | 83 | 1013.5 |
| 20260508004425 | 49 | 203 | 0.0 | 0.0 | 0.00 | 0.33 | 0.20 | 82 | 1013.5 |
| 20260508003431 | 50 | 203 | 0.0 | 0.0 | 0.00 | 0.33 | 0.20 | 80 | 1013.4 |
| 20260508002417 | 51 | 203 | 0.0 | 0.0 | 0.00 | 0.33 | 0.20 | 78 | 1013.4 |
| 20260508001423 | 52 | 203 | 0.0 | 0.0 | 0.00 | 0.33 | 0.20 | 77 | 1013.3 |
| 20260508000429 | 53 | 203 | 0.0 | 0.0 | 0.00 | 0.33 | 0.20 | 75 | 1013.4 |
| 20260507235434 | 54 | 203 | 0.0 | 0.0 | 0.00 | 0.33 | 0.20 | 74 | 1013.4 |
| 20260507234442 | 55 | 204 | 0.0 | 2.0 | 0.00 | 0.33 | 0.20 | 73 | 1013.4 |
| 20260507233429 | 56 | 204 | 1.0 | 3.0 | 0.00 | 0.33 | 0.20 | 69 | 1013.4 |
| 20260507232420 | 57 | 202 | 2.0 | 5.0 | 0.00 | 0.33 | 0.20 | 69 | 1013.5 |
| 20260507231446 | 57 | 195 | 2.0 | 5.0 | 0.00 | 0.33 | 0.20 | 68 | 1013.4 |
| 20260507230432 | 57 | 209 | 3.0 | 6.0 | 0.00 | 0.33 | 0.20 | 67 | 1013.4 |
| 20260507225418 | 56 | 185 | 3.0 | 7.0 | 0.00 | 0.33 | 0.20 | 68 | 1013.3 |
| 20260507224422 | 56 | 178 | 2.0 | 5.0 | 0.00 | 0.33 | 0.20 | 69 | 1013.3 |
| 20260507223429 | 56 | 197 | 1.0 | 4.0 | 0.00 | 0.33 | 0.20 | 70 | 1013.0 |
| 20260507222417 | 56 | 207 | 3.0 | 5.0 | 0.00 | 0.33 | 0.20 | 67 | 1013.1 |
| 20260507221444 | 57 | 194 | 3.0 | 8.0 | 0.00 | 0.33 | 0.20 | 69 | 1013.0 |
| 20260507220427 | 57 | 183 | 3.0 | 8.0 | 0.00 | 0.33 | 0.20 | 71 | 1012.9 |
| 20260507215453 | 55 | 218 | 4.0 | 8.0 | 0.00 | 0.33 | 0.20 | 71 | 1012.8 |
| 20260507214420 | 55 | 197 | 5.0 | 9.0 | 0.00 | 0.33 | 0.20 | 70 | 1012.7 |
| 20260507213429 | 56 | 215 | 5.0 | 9.0 | 0.00 | 0.33 | 0.20 | 68 | 1012.8 |
| 20260507212415 | 56 | 196 | 4.0 | 12.0 | 0.00 | 0.33 | 0.20 | 69 | 1012.7 |
| 20260507211425 | 57 | 205 | 5.0 | 9.0 | 0.00 | 0.33 | 0.20 | 68 | 1012.7 |
| 20260507210432 | 57 | 187 | 4.0 | 7.0 | 0.00 | 0.33 | 0.20 | 72 | 1012.5 |
| 20260507205419 | 55 | 206 | 2.0 | 5.0 | 0.00 | 0.33 | 0.20 | 74 | 1012.5 |
| 20260507204425 | 54 | 215 | 2.0 | 7.0 | 0.00 | 0.33 | 0.20 | 79 | 1012.5 |
| 20260507203432 | 53 | 211 | 4.0 | 7.0 | 0.00 | 0.33 | 0.20 | 78 | 1012.5 |
| 20260507202438 | 53 | 195 | 2.0 | 6.0 | 0.00 | 0.33 | 0.20 | 80 | 1012.6 |
| 20260507201417 | 53 | 205 | 3.0 | 6.0 | 0.00 | 0.33 | 0.20 | 80 | 1012.7 |
| 20260507200426 | 53 | 220 | 0.0 | 4.0 | 0.00 | 0.33 | 0.20 | 80 | 1012.6 |
| 20260507195429 | 53 | 210 | 2.0 | 3.0 | 0.00 | 0.33 | 0.20 | 80 | 1012.5 |
| 20260507194435 | 52 | 267 | 2.0 | 5.0 | 0.00 | 0.33 | 0.20 | 81 | 1012.6 |
| 20260507193422 | 52 | 207 | 1.0 | 3.0 | 0.00 | 0.33 | 0.20 | 82 | 1012.6 |
| 20260507192432 | 52 | 207 | 2.0 | 6.0 | 0.00 | 0.33 | 0.20 | 83 | 1012.7 |
| 20260507191421 | 52 | 193 | 2.0 | 6.0 | 0.00 | 0.33 | 0.20 | 84 | 1012.8 |
| 20260507190423 | 51 | 205 | 2.0 | 4.0 | 0.00 | 0.33 | 0.20 | 85 | 1013.1 |
| 20260507185433 | 51 | 194 | 1.0 | 4.0 | 0.00 | 0.33 | 0.20 | 86 | 1013.0 |
| 20260507184439 | 51 | 228 | 3.0 | 4.0 | 0.00 | 0.33 | 0.20 | 85 | 1013.1 |
| 20260507183445 | 51 | 213 | 2.0 | 5.0 | 0.00 | 0.33 | 0.20 | 86 | 1013.0 |
| 20260507182432 | 51 | 211 | 2.0 | 4.0 | 0.00 | 0.33 | 0.20 | 87 | 1013.0 |
| 20260507181419 | 51 | 207 | 1.0 | 5.0 | 0.00 | 0.33 | 0.20 | 87 | 1012.9 |
| 20260507180425 | 51 | 198 | 2.0 | 5.0 | 0.00 | 0.33 | 0.20 | 87 | 1012.9 |
| 20260507175432 | 51 | 209 | 3.0 | 7.0 | 0.00 | 0.33 | 0.20 | 87 | 1013.0 |
| 20260507174437 | 51 | 219 | 2.0 | 6.0 | 0.00 | 0.33 | 0.20 | 88 | 1012.9 |
| 20260507173421 | 51 | 211 | 0.0 | 4.0 | 0.00 | 0.33 | 0.20 | 89 | 1012.8 |
| 20260507172429 | 52 | 192 | 2.0 | 5.0 | 0.00 | 0.33 | 0.20 | 89 | 1012.9 |
| 20260507171420 | 52 | 209 | 2.0 | 7.0 | 0.00 | 0.33 | 0.20 | 88 | 1012.8 |
| 20260507170427 | 52 | 257 | 2.0 | 7.0 | 0.00 | 0.33 | 0.20 | 89 | 1012.8 |
| 20260507165434 | 52 | 227 | 2.0 | 5.0 | 0.00 | 0.33 | 0.20 | 90 | 1012.8 |
| 20260507164421 | 52 | 208 | 1.0 | 4.0 | 0.00 | 0.33 | 0.20 | 90 | 1012.8 |
| 20260507163430 | 52 | 231 | 3.0 | 4.0 | 0.00 | 0.33 | 0.20 | 89 | 1012.7 |
| 20260507162418 | 52 | 203 | 2.0 | 4.0 | 0.00 | 0.33 | 0.20 | 89 | 1012.8 |
| 20260507161424 | 52 | 225 | 2.0 | 4.0 | 0.00 | 0.33 | 0.20 | 89 | 1012.7 |
| 20260507160451 | 52 | 240 | 1.0 | 4.0 | 0.00 | 0.33 | 0.20 | 90 | 1012.6 |
| 20260507155419 | 52 | 235 | 3.0 | 8.0 | 0.00 | 0.37 | 0.20 | 90 | 1012.5 |
| 20260507154426 | 52 | 242 | 2.0 | 4.0 | 0.00 | 0.37 | 0.20 | 91 | 1012.5 |
| 20260507153430 | 52 | 296 | 3.0 | 6.0 | 0.00 | 0.37 | 0.20 | 91 | 1012.5 |
| 20260507152421 | 52 | 237 | 1.0 | 5.0 | 0.00 | 0.37 | 0.20 | 92 | 1012.4 |